[[{"header":{"parameterUnit":"m.s-1","parameterCategory":2,"la1":30.2991,"la2":30.254,"lo1":-89.0895,"lo2":-89.0444,"dy":0.0017,"dx":0.0017,"nx":28,"ny":28,"refTime":"2024-08-04T21:00:00:Z","depth":"0","parameterNumber":2,"parameterNumberName":"U-component_of_CURRENTS"},"data":[0,0,0,0,0,0,0,0,0,0,0,0,0,0,0,0,0,0,0,0,0,0,0,0,0,0,0,0,0,0,0,0,0,0,0,0,0,0,0,0,0,0,0,0,0,0,0,0,0,0,0,0,0,0,0,0,0,0,-0.2506,-0.2507,0,-0.2574,-0.2574,-0.2575,-0.2576,-0.2576,-0.2575,-0.2575,-0.2691,-0.2695,-0.2698,0,0,0,0,0,0,0,0,0,0,0,0,0,-0.2396,-0.2397,-0.2506,-0.2507,-0.2508,-0.2574,-0.2574,-0.2575,-0.2577,-0.2576,-0.2575,-0.2574,-0.269,-0.2694,-0.2699,0,0,0,0,0,0,0,0,0,0,0,0,0,-0.2449,-0.2398,-0.2506,-0.2519,-0.2521,-0.2574,-0.2574,-0.2575,-0.2577,-0.2576,-0.2575,-0.2574,-0.2689,-0.2694,-0.2699,-0.2752,0,0,-0.2716,-0.2719,0,0,0,0,0,0,0,0,-0.2446,-0.2453,-0.2516,-0.2518,-0.252,-0.2568,-0.2578,-0.2638,-0.2577,-0.2553,-0.2575,-0.2574,-0.2657,-0.2665,-0.2675,-0.2757,-0.2762,-0.2717,-0.272,-0.2722,-0.2724,0,0,0,0,0,0,0,-0.2442,-0.245,-0.253,-0.2517,-0.252,-0.2527,-0.2533,-0.2589,-0.2608,-0.2555,-0.2556,-0.2568,-0.2658,-0.267,-0.2678,-0.2764,-0.2717,-0.2721,-0.2725,-0.2727,-0.2802,-0.2801,0,0,0,0,0,0,-0.244,-0.2447,-0.2528,-0.2533,-0.2483,-0.253,-0.2537,-0.2552,-0.2607,-0.2614,-0.2568,-0.2567,-0.2661,-0.2672,-0.2683,-0.2697,-0.2722,-0.2728,-0.2731,-0.2804,-0.2802,-0.2801,0,0,0,0,0,0,-0.2437,-0.2446,-0.2526,-0.2493,-0.2504,-0.2533,-0.255,-0.2553,-0.2564,-0.2617,-0.2625,-0.2575,-0.2661,-0.2675,-0.2701,-0.2703,-0.273,-0.2735,-0.2805,-0.2803,-0.2801,-0.2758,0,0,0,0,0,0,-0.2434,-0.2445,-0.2455,-0.2493,-0.2506,-0.2553,-0.2551,-0.2556,-0.2574,-0.2574,-0.2626,-0.2635,-0.2661,-0.2692,-0.2706,-0.2711,-0.2739,-0.2807,-0.2804,-0.2802,-0.2761,-0.2755,-0.275,0,0,0,0,0,-0.2429,-0.2447,-0.2455,-0.2465,-0.2518,-0.2554,-0.2561,-0.2577,-0.2576,-0.2582,-0.2594,-0.2634,-0.2686,-0.2696,-0.2713,-0.272,-0.2808,-0.2805,-0.2802,-0.2764,-0.2756,-0.275,0,0,0,0,0,0,-0.2408,-0.245,-0.2459,-0.249,-0.2518,-0.2555,-0.2568,-0.2579,-0.2596,-0.2594,-0.263,-0.2641,-0.2656,-0.2691,-0.2701,-0.2727,-0.275,-0.275,-0.2715,-0.2709,-0.2703,-0.2698,-0.2744,0,0,0,0,0,-0.2409,-0.2426,-0.2469,-0.249,-0.2506,-0.2537,-0.2554,-0.2566,-0.2589,-0.2595,-0.2625,-0.2647,-0.266,-0.2685,-0.2705,-0.2743,-0.2754,-0.2751,-0.2745,-0.274,-0.2743,-0.2734,-0.2729,-0.2791,-0.2791,-0.2791,0,0,-0.2405,-0.2431,-0.2441,-0.2486,-0.2509,-0.2535,-0.2544,-0.2571,-0.2583,-0.2609,-0.2627,-0.2632,-0.2659,-0.2674,-0.2687,-0.2708,-0.2726,-0.2736,-0.2732,-0.2738,-0.2731,-0.2725,-0.272,-0.2789,-0.2789,-0.279,0,0,-0.2409,-0.2432,-0.245,-0.2474,-0.2513,-0.2534,-0.2541,-0.2578,-0.2581,-0.2606,-0.2601,-0.2596,-0.2655,-0.2649,-0.266,-0.264,-0.2685,-0.2655,-0.2645,-0.2635,-0.2631,-0.2627,-0.263,-0.2626,-0.2665,-0.2665,-0.2665,0,-0.2404,-0.2433,-0.246,-0.2486,-0.2503,-0.2532,-0.2552,-0.2569,-0.2602,-0.2602,-0.2606,-0.2623,-0.2638,-0.2638,-0.2613,-0.263,-0.2639,-0.2673,-0.2629,-0.2625,-0.2622,-0.2626,-0.2623,-0.2663,-0.2663,-0.2663,-0.2664,0,-0.2425,-0.2446,-0.2459,-0.2497,-0.2519,-0.2539,-0.2569,-0.2582,-0.2591,-0.2603,-0.26,-0.26,-0.261,-0.2605,-0.2608,-0.2588,-0.2606,-0.2613,-0.2651,-0.2613,-0.262,-0.2617,-0.2659,-0.266,-0.2661,-0.2662,0,0,-0.2408,-0.2463,-0.2464,-0.2476,-0.2522,-0.254,-0.256,-0.2581,-0.259,-0.2602,-0.2605,-0.2588,-0.2582,-0.2589,-0.2585,-0.2573,-0.254,-0.2585,-0.2586,-0.2595,-0.2534,-0.2456,-0.2447,-0.2546,-0.2545,-0.2545,-0.2547,0,-0.2411,-0.2446,-0.2476,-0.25,-0.2517,-0.2546,-0.2565,-0.2585,-0.2598,-0.2609,-0.2596,-0.2598,-0.2582,-0.2579,-0.256,-0.2551,-0.2533,-0.254,-0.2563,-0.2564,-0.2505,-0.244,-0.2329,-0.2314,-0.2545,-0.2545,-0.2544,0,-0.2411,-0.2435,-0.2457,-0.2494,-0.2505,-0.2523,-0.2546,-0.2567,-0.259,-0.2603,-0.2601,-0.2604,-0.2583,-0.2571,-0.2544,-0.2555,-0.2533,-0.2523,-0.2523,-0.2466,-0.248,-0.2388,-0.2301,-0.2268,-0.2541,-0.2541,-0.2541,0,-0.2362,-0.2412,-0.2421,-0.2435,-0.249,-0.2496,-0.2521,-0.2552,-0.2572,-0.2591,-0.2612,-0.26,-0.2599,-0.2572,-0.2548,-0.2549,-0.2523,-0.2527,-0.2437,-0.2433,-0.2349,-0.2337,-0.2236,-0.2487,-0.2487,-0.2487,-0.2487,0,-0.2338,-0.2343,-0.2397,-0.2401,-0.2412,-0.2461,-0.2475,-0.2504,-0.255,-0.2572,-0.2595,-0.261,-0.2598,-0.2589,-0.2557,-0.2488,-0.253,-0.2417,-0.2415,-0.2328,-0.2316,-0.2293,-0.2318,-0.2488,-0.2488,-0.2488,-0.2487,0,-0.2267,-0.2309,-0.232,-0.2372,-0.2385,-0.2386,-0.2447,-0.2468,-0.2522,-0.2553,-0.2563,-0.2615,-0.2596,-0.2581,-0.2546,-0.2493,-0.2388,-0.2405,-0.2308,-0.2291,-0.2145,-0.2172,-0.2096,-0.2037,-0.2294,-0.2292,-0.229,0,-0.223,-0.2228,-0.2275,-0.2282,-0.23,-0.2322,-0.2348,-0.2426,-0.246,-0.255,-0.2563,-0.2578,-0.2553,-0.2488,-0.2403,-0.2321,-0.2312,-0.2176,-0.213,-0.2097,-0.2128,-0.2153,-0.2112,-0.2014,-0.201,-0.2007,-0.2004,0,-0.2146,-0.2163,-0.2174,-0.2193,-0.2215,-0.2244,-0.2288,-0.2317,-0.2415,-0.2445,-0.2484,-0.2473,-0.2429,-0.2288,-0.2192,-0.2133,-0.2103,-0.2104,-0.2092,-0.1901,-0.1903,-0.1858,-0.2078,-0.1976,-0.1979,-0.1981,-0.1982,-0.1983,-0.2067,-0.2055,-0.2075,-0.2082,-0.2117,-0.2139,-0.211,-0.2183,-0.2206,-0.2217,-0.2314,-0.2252,-0.219,-0.2023,-0.1962,-0.1811,-0.1889,-0.1739,-0.1779,-0.1812,-0.172,-0.1872,-0.1751,-0.1753,-0.1754,-0.1755,-0.1756,0,-0.1953,-0.1957,-0.1966,-0.1968,-0.1954,-0.2012,-0.2047,-0.1995,-0.1961,-0.202,-0.1997,-0.1944,-0.1792,-0.1749,-0.1611,-0.1515,-0.1486,-0.1483,-0.1497,-0.1472,-0.1609,-0.1558,-0.1362,-0.1362,-0.1362,-0.1362,-0.1362,-0.1362,-0.1891,-0.1854,-0.1864,-0.1794,-0.1794,-0.1711,-0.1691,-0.1645,-0.1644,-0.1581,-0.1575,-0.1618,-0.1599,-0.1625,-0.1464,-0.1378,-0.1348,-0.1299,-0.1343,-0.1451,-0.1478,-0.1505,-0.1459,-0.1246,-0.1246,-0.1135,-0.1134,-0.1134]},{"header":{"parameterUnit":"m.s-1","parameterCategory":2,"la1":30.2991,"la2":30.254,"lo1":-89.0895,"lo2":-89.0444,"dy":0.0017,"dx":0.0017,"nx":28,"ny":28,"refTime":"2024-08-04T21:00:00:Z","depth":"0","parameterNumber":3,"parameterNumberName":"V-component_of_CURRENTS"},"data":[0,0,0,0,0,0,0,0,0,0,0,0,0,0,0,0,0,0,0,0,0,0,0,0,0,0,0,0,0,0,0,0,0,0,0,0,0,0,0,0,0,0,0,0,0,0,0,0,0,0,0,0,0,0,0,0,0,0,-0.0503,-0.0502,0,-0.0431,-0.043,-0.043,-0.0372,-0.0371,-0.0371,-0.037,-0.0211,-0.0207,-0.0204,0,0,0,0,0,0,0,0,0,0,0,0,0,-0.0533,-0.0534,-0.0503,-0.0502,-0.0501,-0.0431,-0.043,-0.0429,-0.0372,-0.0371,-0.0371,-0.037,-0.0212,-0.0208,-0.0204,0,0,0,0,0,0,0,0,0,0,0,0,0,-0.0497,-0.0534,-0.0503,-0.0464,-0.0459,-0.0431,-0.043,-0.0429,-0.0372,-0.0371,-0.037,-0.0369,-0.0214,-0.0208,-0.0203,-0.0188,0,0,-0.0186,-0.0184,0,0,0,0,0,0,0,0,-0.05,-0.0496,-0.047,-0.0466,-0.0461,-0.0409,-0.0383,-0.0344,-0.0372,-0.0406,-0.037,-0.0369,-0.027,-0.026,-0.025,-0.018,-0.0174,-0.0186,-0.0182,-0.018,-0.0178,0,0,0,0,0,0,0,-0.0502,-0.0499,-0.0475,-0.0469,-0.0464,-0.043,-0.0425,-0.0375,-0.0342,-0.0403,-0.0398,-0.039,-0.0266,-0.0256,-0.0245,-0.0171,-0.0186,-0.0181,-0.0178,-0.0175,-0.0058,-0.0058,0,0,0,0,0,0,-0.0514,-0.0502,-0.0477,-0.0473,-0.0478,-0.0431,-0.0424,-0.0427,-0.0345,-0.0332,-0.0391,-0.0388,-0.0265,-0.0252,-0.024,-0.0206,-0.018,-0.0175,-0.0172,-0.0058,-0.0058,-0.0058,0,0,0,0,0,0,-0.0516,-0.0513,-0.048,-0.0484,-0.0478,-0.0431,-0.0435,-0.0426,-0.0413,-0.0337,-0.0322,-0.0386,-0.0264,-0.0247,-0.0209,-0.0199,-0.0172,-0.0167,-0.0058,-0.0058,-0.0058,-0.0144,0,0,0,0,0,0,-0.0517,-0.0515,-0.0518,-0.0486,-0.0478,-0.0467,-0.0435,-0.0426,-0.0409,-0.0404,-0.0328,-0.0312,-0.0262,-0.0218,-0.0204,-0.0191,-0.0163,-0.0058,-0.0058,-0.0058,-0.0141,-0.0148,-0.0153,0,0,0,0,0,-0.0519,-0.0528,-0.0519,-0.0515,-0.0485,-0.0468,-0.0461,-0.0424,-0.041,-0.0409,-0.0367,-0.0315,-0.0209,-0.0215,-0.0198,-0.0183,-0.0057,-0.0058,-0.0058,-0.0139,-0.0146,-0.0153,0,0,0,0,0,0,-0.054,-0.0522,-0.0511,-0.0514,-0.0494,-0.0458,-0.0451,-0.0432,-0.0399,-0.0393,-0.0325,-0.0307,-0.0269,-0.0219,-0.0227,-0.015,-0.0121,-0.0118,-0.0188,-0.0194,-0.02,-0.0211,-0.0159,0,0,0,0,0,-0.055,-0.0555,-0.0528,-0.0532,-0.0524,-0.0491,-0.0479,-0.0459,-0.0427,-0.0412,-0.0361,-0.0304,-0.0258,-0.0223,-0.0177,-0.0138,-0.0105,-0.0114,-0.012,-0.0125,-0.0123,-0.0103,-0.0107,-0.006,-0.006,-0.006,0,0,-0.0559,-0.055,-0.0551,-0.0537,-0.0519,-0.0515,-0.0482,-0.0471,-0.0463,-0.0398,-0.0372,-0.0328,-0.0256,-0.0218,-0.0193,-0.0172,-0.0119,-0.0126,-0.0131,-0.0125,-0.0104,-0.0109,-0.0113,-0.006,-0.006,-0.006,0,0,-0.0585,-0.0574,-0.0587,-0.0577,-0.0557,-0.0535,-0.0536,-0.0505,-0.0484,-0.0461,-0.0413,-0.0372,-0.0297,-0.0247,-0.021,-0.0218,-0.016,-0.0195,-0.0221,-0.0202,-0.0206,-0.021,-0.0171,-0.017,-0.0188,-0.0188,-0.0188,0,-0.0594,-0.0611,-0.0587,-0.0597,-0.0591,-0.0549,-0.0561,-0.0534,-0.0494,-0.0482,-0.046,-0.0372,-0.0308,-0.0261,-0.0258,-0.023,-0.0209,-0.0204,-0.0212,-0.0214,-0.0216,-0.0175,-0.0173,-0.0192,-0.0192,-0.0191,-0.0191,0,-0.0632,-0.0642,-0.0649,-0.0648,-0.0637,-0.0641,-0.0605,-0.059,-0.0561,-0.0532,-0.0492,-0.0423,-0.0368,-0.0337,-0.0293,-0.0268,-0.0246,-0.0234,-0.0201,-0.0227,-0.0181,-0.0178,-0.0198,-0.0197,-0.0195,-0.0194,0,0,-0.0664,-0.0675,-0.0677,-0.0692,-0.0669,-0.0669,-0.0652,-0.0629,-0.0628,-0.0574,-0.0568,-0.0478,-0.0446,-0.0403,-0.0345,-0.0313,-0.0298,-0.0279,-0.0276,-0.0251,-0.0249,-0.0156,-0.0142,-0.03,-0.0299,-0.0299,-0.0211,0,-0.0701,-0.0742,-0.0728,-0.0757,-0.0775,-0.0736,-0.073,-0.0701,-0.0665,-0.0645,-0.0568,-0.0538,-0.0468,-0.045,-0.0407,-0.033,-0.0293,-0.0321,-0.0217,-0.0213,-0.0137,-0.0137,-0.0096,-0.0007,-0.0207,-0.0206,-0.0206,0,-0.0743,-0.0767,-0.0809,-0.0829,-0.0832,-0.0837,-0.0827,-0.0814,-0.0764,-0.074,-0.069,-0.0635,-0.056,-0.0516,-0.0391,-0.0418,-0.0338,-0.0276,-0.0271,-0.0151,-0.0113,-0.0012,0.0008,0.0141,-0.0199,-0.02,-0.02,0,-0.0792,-0.0822,-0.0862,-0.0868,-0.0878,-0.0887,-0.0881,-0.0846,-0.0849,-0.08,-0.0803,-0.0708,-0.0666,-0.0566,-0.0401,-0.0413,-0.0266,-0.0269,-0.0108,-0.01,-0.0023,-0.0008,0.0131,-0.0195,-0.0196,-0.0196,-0.0196,0,-0.0843,-0.0874,-0.0892,-0.0918,-0.0971,-0.0946,-0.0979,-0.0961,-0.0941,-0.0949,-0.0859,-0.0833,-0.0682,-0.0568,-0.0432,-0.0235,-0.0285,-0.0104,-0.0071,-0.0049,-0.0038,0.0117,0.0162,-0.0192,-0.0193,-0.0194,-0.0194,0,-0.0894,-0.0903,-0.0957,-0.0985,-0.1,-0.1034,-0.1058,-0.1082,-0.1048,-0.1056,-0.1049,-0.0932,-0.0763,-0.0584,-0.0396,-0.0266,0.0003,-0.0017,0.0019,0.0056,0.0319,0.0357,0.054,0.0628,0.0154,0.0157,0.0159,0,-0.0924,-0.0958,-0.1017,-0.1063,-0.1081,-0.1123,-0.1161,-0.1143,-0.1161,-0.1101,-0.1113,-0.0955,-0.0806,-0.0471,-0.0215,0.0049,0.0137,0.0222,0.0214,0.0358,0.0422,0.0443,0.0504,0.0281,0.0284,0.0286,0.0288,0,-0.0985,-0.1002,-0.105,-0.1148,-0.1204,-0.1259,-0.1298,-0.1321,-0.1287,-0.1254,-0.1144,-0.101,-0.067,-0.0322,0.0022,0.017,0.0333,0.0285,0.0412,0.0527,0.0579,0.0671,0.021,0.0312,0.0309,0.0308,0.0306,0.0305,-0.1024,-0.1077,-0.1144,-0.1232,-0.1304,-0.1366,-0.1375,-0.138,-0.136,-0.1237,-0.1136,-0.0865,-0.0421,0.0094,0.0267,0.0617,0.0556,0.0698,0.073,0.0737,0.0834,0.0448,0.0601,0.06,0.06,0.0599,0.0599,0,-0.107,-0.1132,-0.1226,-0.1319,-0.1393,-0.1413,-0.1448,-0.1397,-0.1318,-0.1158,-0.0973,-0.0457,-0.0011,0.0378,0.0863,0.1045,0.1061,0.1112,0.113,0.1169,0.0811,0.0831,0.1069,0.1069,0.1068,0.1068,0.1068,0.1068,-0.1098,-0.1193,-0.1244,-0.1369,-0.1423,-0.1452,-0.1442,-0.1332,-0.1189,-0.083,-0.0513,-0.0267,0.0247,0.0968,0.1384,0.1408,0.1543,0.1527,0.1603,0.1333,0.1295,0.1259,0.129,0.162,0.162,0.1947,0.195,0.1953]}],[{"header":{"parameterUnit":"m.s-1","parameterCategory":2,"la1":30.2991,"la2":30.254,"lo1":-89.0895,"lo2":-89.0444,"dy":0.0017,"dx":0.0017,"nx":28,"ny":28,"refTime":"2024-08-04T21:00:00:Z","depth":"2","parameterNumber":2,"parameterNumberName":"U-component_of_CURRENTS"},"data":[0,0,0,0,0,0,0,0,0,0,0,0,0,0,0,0,0,0,0,0,0,0,0,0,0,0,0,0,0,0,0,0,0,0,0,0,0,0,0,0,0,0,0,0,0,0,0,0,0,0,0,0,0,0,0,0,0,0,-0.2262,-0.2262,0,-0.2321,-0.2321,-0.2322,-0.2328,-0.2327,-0.2327,-0.2326,-0.2396,-0.2399,-0.2401,0,0,0,0,0,0,0,0,0,0,0,0,0,-0.2169,-0.217,-0.2262,-0.2262,-0.2263,-0.2321,-0.2321,-0.2322,-0.2328,-0.2327,-0.2327,-0.2326,-0.2396,-0.2398,-0.2401,0,0,0,0,0,0,0,0,0,0,0,0,0,-0.2215,-0.2171,-0.2261,-0.2274,-0.2276,-0.2321,-0.2322,-0.2322,-0.2328,-0.2327,-0.2327,-0.2326,-0.2395,-0.2398,-0.2402,-0.2437,0,0,-0.2412,-0.2414,0,0,0,0,0,0,0,0,-0.2212,-0.2218,-0.2272,-0.2274,-0.2276,-0.2318,-0.2315,-0.2362,-0.2328,-0.2306,-0.2326,-0.2326,-0.2373,-0.2378,-0.2388,-0.244,-0.2443,-0.2412,-0.2414,-0.2416,-0.2417,0,0,0,0,0,0,0,-0.2209,-0.2216,-0.2283,-0.2273,-0.2275,-0.2283,-0.2288,-0.2323,-0.2342,-0.2308,-0.2309,-0.2319,-0.2374,-0.2385,-0.239,-0.2444,-0.2412,-0.2415,-0.2417,-0.2419,-0.247,-0.2469,0,0,0,0,0,0,-0.2206,-0.2213,-0.2281,-0.2285,-0.2244,-0.2285,-0.2291,-0.2304,-0.2341,-0.2347,-0.2319,-0.2319,-0.2379,-0.2386,-0.2392,-0.2409,-0.2416,-0.2419,-0.2421,-0.247,-0.2469,-0.2469,0,0,0,0,0,0,-0.2203,-0.2211,-0.2279,-0.2251,-0.2261,-0.2287,-0.2301,-0.2305,-0.2318,-0.235,-0.2355,-0.2329,-0.2379,-0.2387,-0.2413,-0.2413,-0.2421,-0.2424,-0.2471,-0.247,-0.2469,-0.246,0,0,0,0,0,0,-0.22,-0.221,-0.2219,-0.2251,-0.2262,-0.2303,-0.2302,-0.2307,-0.2326,-0.2326,-0.236,-0.2365,-0.2379,-0.2408,-0.2416,-0.2418,-0.2426,-0.2472,-0.2471,-0.2469,-0.2461,-0.2459,-0.2456,0,0,0,0,0,-0.2197,-0.2212,-0.222,-0.2228,-0.2274,-0.2304,-0.231,-0.2325,-0.2327,-0.2333,-0.2348,-0.2364,-0.2404,-0.2411,-0.2421,-0.2423,-0.2473,-0.2471,-0.2469,-0.2462,-0.2459,-0.2456,0,0,0,0,0,0,-0.2181,-0.2216,-0.2224,-0.225,-0.2274,-0.2305,-0.2317,-0.2329,-0.2348,-0.2348,-0.237,-0.2377,-0.2392,-0.2409,-0.2415,-0.2428,-0.2436,-0.2436,-0.2427,-0.2424,-0.2422,-0.2413,-0.2429,0,0,0,0,0,-0.2182,-0.2196,-0.2232,-0.225,-0.2265,-0.2292,-0.2307,-0.2319,-0.2341,-0.2348,-0.2369,-0.2384,-0.2395,-0.241,-0.2423,-0.2449,-0.2447,-0.245,-0.2448,-0.2446,-0.2443,-0.2429,-0.2426,-0.2463,-0.2463,-0.2463,0,0,-0.218,-0.2201,-0.2209,-0.2247,-0.2267,-0.2291,-0.2299,-0.2323,-0.2337,-0.2355,-0.2376,-0.2382,-0.2397,-0.241,-0.2419,-0.2427,-0.2434,-0.2444,-0.2442,-0.244,-0.2427,-0.2423,-0.242,-0.2462,-0.2462,-0.2463,0,0,-0.2183,-0.2203,-0.2218,-0.224,-0.2274,-0.2292,-0.2299,-0.2333,-0.2339,-0.2367,-0.2365,-0.2365,-0.2408,-0.24,-0.2406,-0.2401,-0.2418,-0.2409,-0.2404,-0.239,-0.2387,-0.2385,-0.2381,-0.2378,-0.2414,-0.2414,-0.2414,0,-0.218,-0.2204,-0.2227,-0.225,-0.2266,-0.2292,-0.2311,-0.2328,-0.2361,-0.2365,-0.2371,-0.2389,-0.2396,-0.2397,-0.2385,-0.2397,-0.2399,-0.2417,-0.2388,-0.2386,-0.2383,-0.238,-0.2377,-0.2414,-0.2414,-0.2414,-0.2414,0,-0.2197,-0.2217,-0.2228,-0.2261,-0.2282,-0.2302,-0.2331,-0.2346,-0.236,-0.2372,-0.2376,-0.2379,-0.2387,-0.2383,-0.2388,-0.2371,-0.2382,-0.2383,-0.2398,-0.2379,-0.2377,-0.2373,-0.2413,-0.2413,-0.2413,-0.2413,0,0,-0.218,-0.223,-0.2232,-0.2245,-0.2287,-0.2304,-0.2328,-0.2351,-0.2363,-0.2378,-0.2385,-0.2378,-0.2374,-0.2377,-0.2375,-0.2361,-0.2338,-0.2367,-0.2367,-0.2368,-0.2321,-0.2245,-0.2235,-0.2342,-0.2341,-0.2341,-0.2328,0,-0.2183,-0.2216,-0.2243,-0.2269,-0.2287,-0.2316,-0.2336,-0.2358,-0.2376,-0.239,-0.238,-0.2386,-0.2375,-0.2377,-0.2359,-0.2348,-0.2329,-0.2341,-0.2335,-0.2334,-0.2273,-0.2228,-0.2073,-0.2041,-0.2325,-0.2325,-0.2324,0,-0.2182,-0.2205,-0.2229,-0.2267,-0.2279,-0.2298,-0.2327,-0.235,-0.2374,-0.2388,-0.2391,-0.2395,-0.2377,-0.2368,-0.2336,-0.2351,-0.2328,-0.2315,-0.2315,-0.2244,-0.2252,-0.2104,-0.2025,-0.2319,-0.232,-0.232,-0.232,0,-0.214,-0.2188,-0.2201,-0.2216,-0.2269,-0.228,-0.2307,-0.234,-0.2359,-0.2382,-0.24,-0.2389,-0.2389,-0.236,-0.2332,-0.2338,-0.2298,-0.2305,-0.2214,-0.221,-0.2073,-0.2057,-0.2264,-0.2264,-0.2264,-0.2264,-0.2264,0,-0.2118,-0.2127,-0.2182,-0.219,-0.2206,-0.2254,-0.2272,-0.2302,-0.2345,-0.236,-0.2389,-0.2395,-0.2386,-0.237,-0.2337,-0.2262,-0.23,-0.2196,-0.219,-0.2065,-0.2049,-0.229,-0.2293,-0.2264,-0.2264,-0.2264,-0.2264,0,-0.2057,-0.2097,-0.2113,-0.2168,-0.2183,-0.2191,-0.225,-0.2269,-0.2321,-0.2344,-0.2353,-0.2397,-0.2369,-0.2352,-0.2309,-0.226,-0.2202,-0.2166,-0.2024,-0.1999,-0.2127,-0.2129,-0.206,-0.2057,-0.2054,-0.2052,-0.205,0,-0.2024,-0.2027,-0.2078,-0.2088,-0.2109,-0.2138,-0.216,-0.2233,-0.2259,-0.2333,-0.2337,-0.2346,-0.231,-0.2235,-0.2153,-0.2068,-0.2133,-0.1881,-0.1842,-0.2098,-0.21,-0.2107,-0.2113,-0.1668,-0.1663,-0.1659,-0.1656,0,-0.1953,-0.1972,-0.1987,-0.2011,-0.2033,-0.206,-0.2101,-0.2121,-0.2204,-0.2223,-0.2239,-0.2219,-0.2167,-0.2001,-0.1909,-0.1842,-0.188,-0.1797,-0.2088,-0.1742,-0.1726,-0.173,-0.1749,-0.1621,-0.1625,-0.1627,-0.1629,-0.163,-0.1886,-0.188,-0.1903,-0.1913,-0.1945,-0.196,-0.1931,-0.1988,-0.1997,-0.1987,-0.2063,-0.1969,-0.1947,-0.1708,-0.1607,-0.1528,-0.1658,-0.1573,-0.1586,-0.1603,-0.1557,-0.1538,-0.139,-0.1392,-0.1394,-0.1395,-0.1397,0,-0.179,-0.1795,-0.1805,-0.181,-0.1795,-0.1848,-0.1867,-0.1812,-0.1765,-0.1786,-0.1747,-0.1549,-0.143,-0.141,-0.1236,-0.1193,-0.119,-0.1134,-0.1135,-0.117,-0.1201,-0.1136,-0.0857,-0.0855,-0.0853,-0.0852,0,0,-0.1738,-0.1707,-0.1714,-0.1648,-0.1648,-0.1567,-0.1541,-0.1484,-0.146,-0.1362,-0.1302,-0.1369,-0.1388,-0.1133,-0.1063,-0.0934,-0.1044,-0.0883,-0.1319,-0.1357,-0.1386,-0.1457,-0.1396,0,0,0,0,0]},{"header":{"parameterUnit":"m.s-1","parameterCategory":2,"la1":30.2991,"la2":30.254,"lo1":-89.0895,"lo2":-89.0444,"dy":0.0017,"dx":0.0017,"nx":28,"ny":28,"refTime":"2024-08-04T21:00:00:Z","depth":"2","parameterNumber":3,"parameterNumberName":"V-component_of_CURRENTS"},"data":[0,0,0,0,0,0,0,0,0,0,0,0,0,0,0,0,0,0,0,0,0,0,0,0,0,0,0,0,0,0,0,0,0,0,0,0,0,0,0,0,0,0,0,0,0,0,0,0,0,0,0,0,0,0,0,0,0,0,-0.0343,-0.0343,0,-0.0282,-0.0281,-0.028,-0.0227,-0.0227,-0.0226,-0.0225,-0.0094,-0.0091,-0.0088,0,0,0,0,0,0,0,0,0,0,0,0,0,-0.0362,-0.0363,-0.0343,-0.0343,-0.0342,-0.0282,-0.0281,-0.028,-0.0227,-0.0227,-0.0226,-0.0225,-0.0095,-0.0091,-0.0088,0,0,0,0,0,0,0,0,0,0,0,0,0,-0.0333,-0.0363,-0.0344,-0.0308,-0.0304,-0.0282,-0.0281,-0.028,-0.0228,-0.0227,-0.0226,-0.0225,-0.0096,-0.0091,-0.0087,-0.0079,0,0,-0.0074,-0.0072,0,0,0,0,0,0,0,0,-0.0335,-0.0333,-0.0314,-0.031,-0.0306,-0.0261,-0.0239,-0.0209,-0.0228,-0.0257,-0.0225,-0.0224,-0.0143,-0.0135,-0.0127,-0.0073,-0.0067,-0.0073,-0.0071,-0.0069,-0.0068,0,0,0,0,0,0,0,-0.0337,-0.0335,-0.0319,-0.0313,-0.0308,-0.0277,-0.0272,-0.0233,-0.0205,-0.0254,-0.025,-0.0243,-0.0141,-0.0132,-0.0124,-0.0065,-0.0073,-0.007,-0.0067,-0.0065,0.0026,0.0026,0,0,0,0,0,0,-0.0348,-0.0337,-0.0321,-0.0317,-0.0318,-0.0277,-0.0272,-0.0277,-0.0207,-0.0196,-0.0244,-0.0241,-0.014,-0.0129,-0.0119,-0.0092,-0.0069,-0.0065,-0.0062,0.0026,0.0026,0.0026,0,0,0,0,0,0,-0.0349,-0.0348,-0.0324,-0.0325,-0.0319,-0.0278,-0.0284,-0.0276,-0.0266,-0.02,-0.0187,-0.0241,-0.0138,-0.0125,-0.0096,-0.0087,-0.0063,-0.0059,0.0027,0.0026,0.0026,-0.0047,0,0,0,0,0,0,-0.035,-0.0349,-0.0354,-0.0326,-0.032,-0.0316,-0.0284,-0.0275,-0.0262,-0.0258,-0.0193,-0.018,-0.0137,-0.0103,-0.0092,-0.008,-0.0055,0.0027,0.0027,0.0026,-0.0044,-0.005,-0.0054,0,0,0,0,0,-0.0351,-0.0364,-0.0355,-0.0352,-0.0329,-0.0317,-0.0311,-0.0278,-0.0263,-0.0264,-0.0228,-0.0182,-0.0097,-0.0101,-0.0087,-0.0074,0.0027,0.0027,0.0026,-0.0042,-0.0049,-0.0054,0,0,0,0,0,0,-0.0374,-0.0359,-0.0348,-0.0356,-0.0339,-0.0308,-0.0304,-0.0286,-0.0259,-0.0254,-0.0194,-0.0179,-0.015,-0.0107,-0.0113,-0.0049,-0.0023,-0.0021,-0.008,-0.0085,-0.009,-0.0093,-0.0052,0,0,0,0,0,-0.0384,-0.0392,-0.0368,-0.0376,-0.037,-0.034,-0.033,-0.0312,-0.0285,-0.0273,-0.0229,-0.0181,-0.0142,-0.0112,-0.0076,-0.0043,-0.0,-0.0022,-0.0027,-0.0032,-0.0025,0.0029,0.0029,0.0025,0.0025,0.0025,0,0,-0.0394,-0.0388,-0.0391,-0.0381,-0.0366,-0.0364,-0.0332,-0.0326,-0.0319,-0.0262,-0.0241,-0.0204,-0.0142,-0.0111,-0.0091,-0.007,-0.001,-0.0032,-0.0037,-0.0027,0.0028,0.0029,0.0029,0.0024,0.0024,0.0024,0,0,-0.0424,-0.0416,-0.0431,-0.0423,-0.0407,-0.0386,-0.0388,-0.0362,-0.0343,-0.0327,-0.0282,-0.0244,-0.0187,-0.0136,-0.0104,-0.0113,-0.0049,-0.0097,-0.011,-0.0059,-0.0058,-0.0057,-0.0013,-0.0007,-0.0087,-0.0087,-0.0087,0,-0.0435,-0.0453,-0.0433,-0.0444,-0.0437,-0.0401,-0.0411,-0.0389,-0.0357,-0.0339,-0.0328,-0.0243,-0.0194,-0.014,-0.0142,-0.0121,-0.0088,-0.0095,-0.0066,-0.0063,-0.0061,-0.0016,-0.0009,-0.0091,-0.009,-0.009,-0.0089,0,-0.0475,-0.0485,-0.0494,-0.0494,-0.0484,-0.0489,-0.0457,-0.0444,-0.0418,-0.0388,-0.0344,-0.0287,-0.0229,-0.0207,-0.0175,-0.0127,-0.0109,-0.0091,-0.0054,-0.0065,-0.0017,-0.0008,-0.0096,-0.0094,-0.0093,-0.0092,0,0,-0.051,-0.052,-0.0522,-0.0531,-0.0512,-0.0511,-0.0497,-0.0469,-0.0455,-0.0413,-0.0384,-0.0318,-0.0282,-0.0243,-0.0193,-0.0141,-0.0098,-0.011,-0.0106,-0.0072,0.0008,0.0047,0.0062,-0.0079,-0.0078,-0.0077,0.003,0,-0.0544,-0.0581,-0.0569,-0.0591,-0.0604,-0.0566,-0.0555,-0.0523,-0.0485,-0.0447,-0.0373,-0.0333,-0.0295,-0.027,-0.0213,-0.0128,-0.0076,-0.0129,0.002,0.0025,0.0057,0.0073,0.005,0.0145,0.0039,0.004,0.0042,0,-0.0584,-0.0604,-0.0638,-0.0641,-0.0641,-0.0644,-0.0615,-0.0601,-0.0533,-0.0502,-0.0441,-0.0384,-0.0299,-0.0273,-0.0127,-0.0166,-0.0085,-0.0018,-0.0012,0.0061,0.0082,0.0143,0.0167,0.0058,0.0056,0.0055,0.0054,0,-0.0623,-0.0647,-0.0676,-0.068,-0.0678,-0.0679,-0.0669,-0.0619,-0.0606,-0.0534,-0.0511,-0.0407,-0.0355,-0.0242,-0.0104,-0.0116,0.0057,0.006,0.0173,0.0177,0.0208,0.0212,0.0164,0.0164,0.0164,0.0164,0.0164,0,-0.0664,-0.0687,-0.0701,-0.0721,-0.0751,-0.0726,-0.0734,-0.0708,-0.066,-0.0639,-0.0546,-0.0498,-0.0346,-0.0228,-0.0108,0.0067,0.0058,0.0182,0.0214,0.018,0.018,0.0146,0.0142,0.0168,0.0167,0.0166,0.0165,0,-0.0703,-0.0712,-0.0751,-0.0766,-0.0776,-0.0797,-0.0795,-0.0795,-0.0743,-0.0711,-0.0692,-0.056,-0.04,-0.0237,-0.004,0.0064,0.0225,0.0287,0.0236,0.026,0.0308,0.0299,0.0422,0.0425,0.0427,0.0428,0.043,0,-0.0726,-0.0753,-0.0797,-0.0829,-0.0841,-0.0866,-0.0882,-0.0846,-0.0835,-0.0743,-0.0725,-0.0571,-0.0437,-0.0131,0.0077,0.0306,0.0294,0.0407,0.0389,0.0319,0.0338,0.0326,0.0315,0.0395,0.0396,0.0397,0.0397,0,-0.077,-0.0786,-0.0821,-0.0893,-0.0928,-0.0958,-0.0969,-0.0971,-0.0913,-0.0854,-0.074,-0.0624,-0.0334,-0.0072,0.0213,0.0335,0.0368,0.0433,0.0391,0.0331,0.0302,0.0317,0.0305,0.0405,0.0404,0.0404,0.0403,0.0403,-0.0797,-0.0837,-0.0889,-0.0954,-0.1,-0.1033,-0.1038,-0.1015,-0.0974,-0.085,-0.0747,-0.0531,-0.0305,0.0125,0.0313,0.0477,0.047,0.051,0.0504,0.0498,0.0473,0.045,0.0575,0.0576,0.0576,0.0576,0.0576,0,-0.083,-0.0879,-0.0947,-0.1016,-0.1066,-0.1077,-0.1082,-0.1042,-0.0968,-0.0819,-0.0662,-0.0382,-0.0093,0.0135,0.0413,0.0575,0.054,0.0588,0.0513,0.0505,0.0498,0.047,0.0574,0.0574,0.0575,0.0575,0,0,-0.0849,-0.0921,-0.0962,-0.1056,-0.1099,-0.1124,-0.1114,-0.1025,-0.0903,-0.0721,-0.0545,-0.0325,-0.0058,0.014,0.0331,0.0467,0.0441,0.0471,0.0457,0.0339,0.033,0.044,0.0388,0,0,0,0,0]}],[{"header":{"parameterUnit":"m.s-1","parameterCategory":2,"la1":30.2991,"la2":30.254,"lo1":-89.0895,"lo2":-89.0444,"dy":0.0017,"dx":0.0017,"nx":28,"ny":28,"refTime":"2024-08-04T21:00:00:Z","depth":"4","parameterNumber":2,"parameterNumberName":"U-component_of_CURRENTS"},"data":[0,0,0,0,0,0,0,0,0,0,0,0,0,0,0,0,0,0,0,0,0,0,0,0,0,0,0,0,0,0,0,0,0,0,0,0,0,0,0,0,0,0,0,0,0,0,0,0,0,0,0,0,0,0,0,0,0,0,-0.16,-0.1601,0,-0.1674,-0.1674,-0.1675,-0.1726,-0.1726,-0.1727,-0.1727,-0.1824,-0.1826,-0.1828,0,0,0,0,0,0,0,0,0,0,0,0,0,-0.151,-0.1511,-0.16,-0.1601,-0.1602,-0.1674,-0.1675,-0.1675,-0.1726,-0.1726,-0.1727,-0.1727,-0.1823,-0.1825,-0.1828,0,0,0,0,0,0,0,0,0,0,0,0,0,-0.1562,-0.1512,-0.16,-0.1636,-0.164,-0.1673,-0.1675,-0.1676,-0.1726,-0.1726,-0.1727,-0.1728,-0.1822,-0.1825,-0.1828,-0.1835,0,0,-0.1838,-0.184,0,0,0,0,0,0,0,0,-0.1559,-0.1565,-0.163,-0.1634,-0.1638,-0.1692,-0.1678,-0.173,-0.1726,-0.1692,-0.1727,-0.1728,-0.1782,-0.1788,-0.1799,-0.184,-0.1844,-0.1839,-0.1841,-0.1842,-0.1843,0,0,0,0,0,0,0,-0.1555,-0.1562,-0.1628,-0.1631,-0.1636,-0.1651,-0.1659,-0.1688,-0.1732,-0.1695,-0.1699,-0.1709,-0.1784,-0.1796,-0.1802,-0.1845,-0.1839,-0.1841,-0.1843,-0.1845,-0.1925,-0.1925,0,0,0,0,0,0,-0.1547,-0.1559,-0.1626,-0.1631,-0.16,-0.1652,-0.1661,-0.1673,-0.1732,-0.1741,-0.1708,-0.1711,-0.179,-0.1798,-0.1806,-0.1865,-0.1842,-0.1845,-0.1847,-0.1925,-0.1925,-0.1925,0,0,0,0,0,0,-0.1545,-0.1552,-0.1623,-0.1597,-0.1607,-0.1653,-0.1666,-0.1675,-0.1714,-0.1741,-0.1751,-0.1742,-0.1791,-0.1801,-0.1852,-0.1867,-0.1846,-0.1849,-0.1924,-0.1925,-0.1925,-0.1952,0,0,0,0,0,0,-0.1542,-0.1551,-0.1572,-0.1596,-0.1608,-0.1656,-0.1666,-0.1676,-0.1717,-0.1722,-0.1773,-0.1781,-0.1792,-0.1847,-0.1855,-0.1871,-0.1852,-0.1924,-0.1924,-0.1925,-0.1951,-0.1953,-0.1955,0,0,0,0,0,-0.1538,-0.1558,-0.1572,-0.1581,-0.163,-0.1657,-0.1665,-0.1699,-0.1719,-0.1737,-0.1773,-0.1781,-0.1854,-0.185,-0.186,-0.1877,-0.1924,-0.1924,-0.1925,-0.195,-0.1953,-0.1955,0,0,0,0,0,0,-0.1534,-0.1566,-0.1582,-0.1613,-0.164,-0.1666,-0.1692,-0.1714,-0.1757,-0.1772,-0.1796,-0.1807,-0.185,-0.1859,-0.1855,-0.1897,-0.1885,-0.1888,-0.1901,-0.1904,-0.1906,-0.1896,-0.1855,0,0,0,0,0,-0.1541,-0.1563,-0.1593,-0.1619,-0.1636,-0.167,-0.1692,-0.1714,-0.1747,-0.1769,-0.1803,-0.1833,-0.1854,-0.1878,-0.1897,-0.1934,-0.1919,-0.1945,-0.1947,-0.1949,-0.1945,-0.1931,-0.1931,-0.1926,-0.1926,-0.1926,0,0,-0.1548,-0.1568,-0.1583,-0.162,-0.1647,-0.1674,-0.1686,-0.1724,-0.1751,-0.1772,-0.183,-0.1848,-0.1864,-0.1897,-0.1917,-0.1914,-0.1944,-0.195,-0.1951,-0.1946,-0.1931,-0.1932,-0.1932,-0.1927,-0.1927,-0.1926,0,0,-0.1559,-0.1591,-0.1611,-0.1635,-0.1676,-0.1695,-0.1711,-0.1753,-0.178,-0.183,-0.1842,-0.1868,-0.1921,-0.1923,-0.1931,-0.1957,-0.1952,-0.1968,-0.1982,-0.1968,-0.1968,-0.1968,-0.1954,-0.1952,-0.1974,-0.1974,-0.1974,0,-0.157,-0.1597,-0.1622,-0.1647,-0.1672,-0.1706,-0.1735,-0.1763,-0.1817,-0.1837,-0.1854,-0.1907,-0.1924,-0.1945,-0.1952,-0.1962,-0.1956,-0.1974,-0.1971,-0.197,-0.197,-0.1955,-0.1953,-0.1975,-0.1975,-0.1975,-0.1975,0,-0.1586,-0.1621,-0.1636,-0.1677,-0.1706,-0.1737,-0.1774,-0.1812,-0.1851,-0.1872,-0.1914,-0.1933,-0.196,-0.1967,-0.1974,-0.198,-0.1978,-0.1972,-0.1965,-0.1972,-0.1956,-0.1953,-0.1977,-0.1977,-0.1976,-0.1976,0,0,-0.1573,-0.1637,-0.1645,-0.1672,-0.1727,-0.1749,-0.1797,-0.1839,-0.187,-0.1914,-0.1945,-0.1972,-0.1982,-0.1989,-0.1996,-0.1988,-0.1981,-0.1987,-0.1986,-0.1974,-0.1957,-0.1837,-0.1823,-0.1983,-0.1983,-0.1983,-0.1948,0,-0.1581,-0.1628,-0.166,-0.1712,-0.174,-0.1787,-0.1825,-0.1868,-0.1907,-0.1944,-0.1957,-0.1987,-0.199,-0.2007,-0.2,-0.1989,-0.1976,-0.1991,-0.195,-0.1949,-0.1842,-0.1816,-0.1981,-0.1946,-0.1946,-0.1945,-0.1945,0,-0.1578,-0.1614,-0.1666,-0.1731,-0.1749,-0.1788,-0.1853,-0.189,-0.1939,-0.1969,-0.1995,-0.201,-0.2015,-0.2011,-0.1989,-0.2005,-0.1981,-0.1964,-0.1963,-0.1837,-0.1823,-0.1936,-0.194,-0.194,-0.1941,-0.1941,-0.1941,0,-0.1538,-0.1612,-0.1655,-0.1679,-0.1759,-0.1798,-0.1843,-0.1901,-0.1929,-0.1981,-0.2004,-0.2018,-0.2028,-0.2005,-0.198,-0.199,-0.1942,-0.1947,-0.1813,-0.1806,-0.1916,-0.1916,-0.1912,-0.1912,-0.1912,-0.1912,-0.1912,0,-0.1513,-0.1551,-0.1648,-0.1671,-0.1724,-0.1788,-0.184,-0.1887,-0.1943,-0.196,-0.2012,-0.2013,-0.2028,-0.2008,-0.1979,-0.1879,-0.1938,-0.1798,-0.1778,-0.1929,-0.1931,-0.1914,-0.1915,-0.1911,-0.1911,-0.1911,-0.1912,0,-0.1451,-0.1517,-0.1572,-0.1673,-0.1705,-0.1744,-0.1833,-0.186,-0.1929,-0.1951,-0.1967,-0.201,-0.1976,-0.197,-0.1927,-0.186,-0.1788,-0.1739,-0.1899,-0.1893,-0.1666,-0.1669,-0.1578,-0.1573,-0.1569,-0.1566,-0.1563,0,-0.1417,-0.1443,-0.1558,-0.1591,-0.1641,-0.171,-0.1749,-0.1837,-0.1857,-0.1925,-0.1917,-0.1927,-0.1933,-0.1771,-0.1787,-0.1704,-0.1683,-0.1642,-0.1645,-0.1636,-0.1627,-0.1636,-0.1644,-0.1556,-0.1555,-0.1554,-0.1553,0,-0.1351,-0.1408,-0.1454,-0.1522,-0.158,-0.1625,-0.1688,-0.1689,-0.1772,-0.1853,-0.1803,-0.1765,-0.1724,-0.1677,-0.1621,-0.1569,-0.1665,-0.16,-0.1608,-0.1611,-0.1609,-0.1606,-0.1619,-0.1539,-0.1541,-0.1543,-0.1544,0,-0.1302,-0.1318,-0.1387,-0.143,-0.15,-0.1514,-0.1561,-0.1572,-0.1599,-0.1677,-0.1655,-0.1664,-0.1707,-0.1605,-0.1556,-0.1489,-0.1464,-0.1413,-0.1431,-0.1447,-0.1416,-0.1395,-0.1224,0,0,0,0,0,-0.1241,-0.1246,-0.1285,-0.1325,-0.1389,-0.142,-0.1504,-0.1551,-0.1634,-0.1554,-0.1596,-0.1546,-0.1466,-0.1476,-0.1373,-0.1494,-0.1475,-0.1369,-0.143,-0.1462,-0.1478,-0.1453,0,0,0,0,0,0,-0.1201,-0.1236,-0.1247,-0.1224,-0.1226,-0.1275,-0.1322,-0.1382,-0.1342,-0.1428,-0.1388,-0.1447,-0.139,-0.1488,-0.1337,-0.1337,-0.1342,-0.1382,-0.1377,-0.1453,-0.1468,-0.1481,-0.146,0,0,0,0,0]},{"header":{"parameterUnit":"m.s-1","parameterCategory":2,"la1":30.2991,"la2":30.254,"lo1":-89.0895,"lo2":-89.0444,"dy":0.0017,"dx":0.0017,"nx":28,"ny":28,"refTime":"2024-08-04T21:00:00:Z","depth":"4","parameterNumber":3,"parameterNumberName":"V-component_of_CURRENTS"},"data":[0,0,0,0,0,0,0,0,0,0,0,0,0,0,0,0,0,0,0,0,0,0,0,0,0,0,0,0,0,0,0,0,0,0,0,0,0,0,0,0,0,0,0,0,0,0,0,0,0,0,0,0,0,0,0,0,0,0,-0.0234,-0.0234,0,-0.0199,-0.0199,-0.0198,-0.0166,-0.0165,-0.0165,-0.0164,-0.0081,-0.0079,-0.0077,0,0,0,0,0,0,0,0,0,0,0,0,0,-0.0232,-0.0233,-0.0234,-0.0234,-0.0233,-0.0199,-0.0199,-0.0198,-0.0166,-0.0165,-0.0165,-0.0164,-0.0081,-0.0079,-0.0077,0,0,0,0,0,0,0,0,0,0,0,0,0,-0.0219,-0.0233,-0.0234,-0.0213,-0.0211,-0.0199,-0.0199,-0.0198,-0.0166,-0.0165,-0.0164,-0.0164,-0.0082,-0.0079,-0.0077,-0.0072,0,0,-0.0068,-0.0067,0,0,0,0,0,0,0,0,-0.022,-0.0219,-0.0217,-0.0214,-0.0212,-0.0186,-0.0167,-0.0153,-0.0166,-0.0183,-0.0164,-0.0164,-0.0112,-0.0106,-0.0102,-0.0068,-0.0065,-0.0068,-0.0066,-0.0065,-0.0064,0,0,0,0,0,0,0,-0.0221,-0.022,-0.0221,-0.0216,-0.0213,-0.0191,-0.0189,-0.0164,-0.0151,-0.0182,-0.0179,-0.0175,-0.011,-0.0105,-0.01,-0.0064,-0.0068,-0.0065,-0.0064,-0.0063,-0.0009,-0.0009,0,0,0,0,0,0,-0.0228,-0.0222,-0.0222,-0.022,-0.0214,-0.0191,-0.0189,-0.0195,-0.0152,-0.0145,-0.0175,-0.0173,-0.011,-0.0103,-0.0097,-0.0085,-0.0065,-0.0062,-0.0061,-0.0009,-0.0009,-0.0009,0,0,0,0,0,0,-0.0228,-0.0229,-0.0223,-0.0219,-0.0216,-0.0192,-0.0199,-0.0195,-0.0191,-0.0148,-0.014,-0.0177,-0.0109,-0.0101,-0.0087,-0.0081,-0.0061,-0.0059,-0.0009,-0.0009,-0.0009,-0.0064,0,0,0,0,0,0,-0.0228,-0.0229,-0.0236,-0.022,-0.0217,-0.0224,-0.02,-0.0194,-0.0189,-0.0187,-0.0146,-0.0138,-0.0108,-0.0092,-0.0084,-0.0077,-0.0057,-0.0008,-0.0009,-0.0009,-0.0062,-0.0066,-0.0069,0,0,0,0,0,-0.0229,-0.0244,-0.0237,-0.0237,-0.0228,-0.0225,-0.0222,-0.0202,-0.019,-0.0195,-0.0172,-0.0139,-0.0088,-0.009,-0.0082,-0.0073,-0.0008,-0.0009,-0.0009,-0.006,-0.0065,-0.0069,0,0,0,0,0,0,-0.0248,-0.0242,-0.0234,-0.0247,-0.0239,-0.0219,-0.0222,-0.0209,-0.0195,-0.0192,-0.015,-0.0141,-0.0127,-0.0096,-0.0099,-0.0059,-0.0039,-0.0038,-0.0081,-0.0085,-0.0089,-0.0081,-0.0054,0,0,0,0,0,-0.0256,-0.0267,-0.0254,-0.0265,-0.0263,-0.0244,-0.024,-0.0229,-0.0214,-0.0207,-0.0179,-0.0147,-0.0123,-0.0102,-0.0081,-0.0061,-0.0015,-0.0047,-0.0051,-0.0054,-0.0042,0.0026,0.003,-0.0011,-0.0011,-0.0011,0,0,-0.0267,-0.0265,-0.0271,-0.027,-0.0262,-0.0265,-0.024,-0.0242,-0.024,-0.02,-0.0192,-0.0168,-0.0125,-0.0107,-0.0095,-0.0077,-0.0024,-0.0055,-0.0058,-0.0044,0.0026,0.003,0.0034,-0.0012,-0.0011,-0.0011,0,0,-0.0294,-0.0293,-0.0309,-0.0307,-0.03,-0.0287,-0.0291,-0.0276,-0.0265,-0.0261,-0.0227,-0.0199,-0.0169,-0.0127,-0.0103,-0.0113,-0.0056,-0.0108,-0.0108,-0.0043,-0.0039,-0.0034,0.0008,0.0017,-0.0098,-0.0098,-0.0098,0,-0.0306,-0.0323,-0.0313,-0.0326,-0.0323,-0.03,-0.0311,-0.0299,-0.0282,-0.0265,-0.0266,-0.0202,-0.0172,-0.0122,-0.0128,-0.0119,-0.0082,-0.0097,-0.0047,-0.0042,-0.0036,0.0007,0.0017,-0.0101,-0.01,-0.01,-0.01,0,-0.0341,-0.0353,-0.0363,-0.0369,-0.0366,-0.0375,-0.0355,-0.0349,-0.0333,-0.0309,-0.0273,-0.0235,-0.0186,-0.0175,-0.0157,-0.0099,-0.0088,-0.0071,-0.0035,-0.0035,0.001,0.0021,-0.0105,-0.0104,-0.0103,-0.0102,0,0,-0.0368,-0.0385,-0.0388,-0.0393,-0.0389,-0.039,-0.0385,-0.0362,-0.0344,-0.0322,-0.0285,-0.0246,-0.0212,-0.0183,-0.0146,-0.0088,-0.0032,-0.0066,-0.0062,-0.0024,0.0098,0.0066,0.0076,-0.0006,-0.0004,-0.0002,0.0107,0,-0.0395,-0.0429,-0.0425,-0.0445,-0.0455,-0.0431,-0.0424,-0.0399,-0.0369,-0.033,-0.0269,-0.0232,-0.0217,-0.0194,-0.0134,-0.0057,-0.0,-0.0064,0.0094,0.0099,0.0071,0.009,0.0005,0.0116,0.0119,0.0121,0.0122,0,-0.0425,-0.0443,-0.0473,-0.0473,-0.0473,-0.0482,-0.0452,-0.0443,-0.0379,-0.0352,-0.0293,-0.0245,-0.0163,-0.0153,-0.0009,-0.0053,0.0019,0.0079,0.0085,0.0088,0.0089,0.0122,0.0144,0.0143,0.0141,0.0139,0.0138,0,-0.0444,-0.0469,-0.0493,-0.0498,-0.0499,-0.0502,-0.0496,-0.0451,-0.0432,-0.036,-0.0329,-0.023,-0.0179,-0.0072,0.003,0.002,0.0189,0.0196,0.0237,0.0235,0.0256,0.025,0.031,0.031,0.0309,0.0309,0.0309,0,-0.0465,-0.0484,-0.051,-0.0524,-0.0545,-0.0532,-0.0529,-0.0506,-0.0455,-0.042,-0.0343,-0.0292,-0.0154,-0.0051,0.0044,0.0169,0.0203,0.0247,0.027,0.0226,0.0216,0.0263,0.0256,0.0313,0.0312,0.0311,0.0311,0,-0.0478,-0.0497,-0.0528,-0.0548,-0.0559,-0.0574,-0.0571,-0.0557,-0.051,-0.0459,-0.0437,-0.0321,-0.0192,-0.0061,0.0118,0.0179,0.0306,0.0343,0.0274,0.0289,0.0307,0.0296,0.0412,0.0412,0.0412,0.0412,0.0412,0,-0.0485,-0.0507,-0.0556,-0.0581,-0.0598,-0.0618,-0.0626,-0.0594,-0.057,-0.0478,-0.0447,-0.0322,-0.0236,-0.0006,0.012,0.0305,0.0323,0.0383,0.0359,0.0311,0.0322,0.0311,0.03,0.0412,0.0412,0.0412,0.0412,0,-0.0496,-0.0522,-0.055,-0.0611,-0.0641,-0.0659,-0.0664,-0.0649,-0.0593,-0.0551,-0.0437,-0.0316,-0.0171,-0.0009,0.0128,0.0258,0.0343,0.0384,0.0385,0.0362,0.0312,0.0321,0.031,0.0412,0.0412,0.0412,0.0412,0,-0.0504,-0.0532,-0.0581,-0.0629,-0.0672,-0.0687,-0.0685,-0.0643,-0.0611,-0.0503,-0.0471,-0.031,-0.0213,-0.0032,0.0095,0.0215,0.0246,0.028,0.0287,0.0288,0.0208,0.0124,0.0198,0,0,0,0,0,-0.0507,-0.0544,-0.0593,-0.0644,-0.0686,-0.0709,-0.0701,-0.0683,-0.0632,-0.0553,-0.0505,-0.0369,-0.0165,-0.0075,0.0043,0.008,0.025,0.0218,0.0288,0.0411,0.0411,0.0334,0,0,0,0,0,0,-0.0511,-0.0561,-0.0592,-0.0649,-0.0686,-0.0719,-0.0718,-0.0682,-0.0623,-0.0557,-0.0445,-0.0363,-0.0166,-0.0239,0.0035,0.0072,0.0128,0.0321,0.0323,0.0411,0.0411,0.0411,0.0332,0,0,0,0,0]}]]